Hourly Weather Homps

Today, 16 April, Friday

Time Temperature Precipitation Wind Pressure Humidity
00:00 +7°C° 0 mm 1 mps 753 mmHg 58%
01:00 +7°C° 0 mm 1 mps 753 mmHg 60%
02:00 +6°C° 0 mm 1 mps 753 mmHg 63%
03:00 +6°C° 0 mm 1 mps 753 mmHg 65%
04:00 +6°C° 0 mm 1 mps 753 mmHg 66%
05:00 +5°C° 0 mm 2 mps 753 mmHg 66%
06:00 +4°C° 0 mm 2 mps 753 mmHg 67%
07:00 +5°C° 0 mm 3 mps 753 mmHg 58%
08:00 +8°C° 0 mm 3 mps 753 mmHg 50%
09:00 +10°C° 0 mm 4 mps 753 mmHg 41%
10:00 +11°C° 0 mm 4 mps 753 mmHg 37%
11:00 +12°C° 0 mm 5 mps 752 mmHg 33%
12:00 +14°C° 0 mm 5 mps 752 mmHg 29%
13:00 +14°C° 0 mm 5 mps 752 mmHg 28%
14:00 +14°C° 0 mm 6 mps 751 mmHg 27%
15:00 +14°C° 0 mm 7 mps 751 mmHg 25%
16:00 +13°C° 0 mm 6 mps 751 mmHg 31%
17:00 +11°C° 0 mm 6 mps 752 mmHg 36%
18:00 +9°C° 0 mm 5 mps 752 mmHg 41%
19:00 +8°C° 0.1 mm 4 mps 753 mmHg 47%
20:00 +8°C° 0.1 mm 3 mps 753 mmHg 53%
21:00 +7°C° 0.1 mm 3 mps 754 mmHg 58%
22:00 +5°C° 0.1 mm 3 mps 754 mmHg 63%
23:00 +5°C° 0.1 mm 3 mps 754 mmHg 67%

Tomorrow, 17 April, Saturday

Time Temperature Precipitation Wind Pressure Humidity
00:00 +5°C° 0.1 mm 2 mps 754 mmHg 72%
01:00 +3°C° 0 mm 3 mps 754 mmHg 73%
02:00 +3°C° 0 mm 4 mps 753 mmHg 74%
03:00 +1°C° 0 mm 4 mps 753 mmHg 75%
04:00 +3°C° 0 mm 4 mps 753 mmHg 75%
05:00 +3°C° 0 mm 4 mps 753 mmHg 75%
06:00 +3°C° 0 mm 4 mps 754 mmHg 75%
07:00 +5°C° 0 mm 5 mps 754 mmHg 68%
08:00 +5°C° 0 mm 6 mps 753 mmHg 61%
09:00 +6°C° 0 mm 8 mps 753 mmHg 54%
10:00 +9°C° 0 mm 8 mps 753 mmHg 49%
11:00 +10°C° 0 mm 8 mps 753 mmHg 44%
12:00 +11°C° 0 mm 8 mps 752 mmHg 39%
13:00 +12°C° 0 mm 8 mps 752 mmHg 40%
14:00 +12°C° 0 mm 8 mps 752 mmHg 40%
15:00 +12°C° 0 mm 8 mps 751 mmHg 40%
16:00 +11°C° 0 mm 9 mps 752 mmHg 45%
17:00 +10°C° 0 mm 9 mps 752 mmHg 50%
18:00 +8°C° 0 mm 9 mps 752 mmHg 55%
19:00 +7°C° 0 mm 9 mps 753 mmHg 62%
20:00 +6°C° 0 mm 8 mps 753 mmHg 70%
21:00 +6°C° 0 mm 8 mps 754 mmHg 77%
22:00 +5°C° 0 mm 7 mps 754 mmHg 78%
23:00 +5°C° 0 mm 7 mps 754 mmHg 80%

Day after tomorrow, 18 April, Sunday

Time Temperature Precipitation Wind Pressure Humidity
00:00 +4°C° 0 mm 6 mps 754 mmHg 81%
01:00 +4°C° 0 mm 6 mps 754 mmHg 81%
02:00 +4°C° 0 mm 6 mps 754 mmHg 82%
03:00 +4°C° 0 mm 6 mps 754 mmHg 82%
04:00 +4°C° 0 mm 6 mps 754 mmHg 82%
05:00 +4°C° 0 mm 6 mps 754 mmHg 81%
06:00 +4°C° 0 mm 6 mps 754 mmHg 81%
07:00 +5°C° 0 mm 7 mps 754 mmHg 73%
08:00 +8°C° 0 mm 7 mps 754 mmHg 65%
09:00 +10°C° 0 mm 8 mps 754 mmHg 57%
10:00 +11°C° 0 mm 8 mps 754 mmHg 53%
11:00 +12°C° 0 mm 7 mps 754 mmHg 48%
12:00 +14°C° 0 mm 7 mps 753 mmHg 43%
13:00 +14°C° 0 mm 7 mps 753 mmHg 43%
14:00 +14°C° 0 mm 7 mps 753 mmHg 43%
15:00 +15°C° 0 mm 7 mps 753 mmHg 43%
16:00 +14°C° 0 mm 7 mps 753 mmHg 48%
17:00 +13°C° 0 mm 6 mps 753 mmHg 52%
18:00 +11°C° 0 mm 6 mps 753 mmHg 56%
19:00 +10°C° 0 mm 5 mps 753 mmHg 61%
20:00 +10°C° 0 mm 4 mps 754 mmHg 66%
21:00 +9°C° 0 mm 3 mps 754 mmHg 70%
22:00 +8°C° 0 mm 3 mps 754 mmHg 72%
23:00 +8°C° 0 mm 3 mps 754 mmHg 74%

19 April, Monday

Time Temperature Precipitation Wind Pressure Humidity
00:00 +7°C° 0 mm 2 mps 753 mmHg 76%
01:00 +7°C° 0 mm 2 mps 753 mmHg 76%
02:00 +7°C° 0 mm 2 mps 753 mmHg 76%
03:00 +6°C° 0 mm 2 mps 753 mmHg 76%
04:00 +7°C° 0 mm 2 mps 752 mmHg 75%
05:00 +7°C° 0 mm 2 mps 752 mmHg 73%
06:00 +7°C° 0 mm 2 mps 752 mmHg 72%
07:00 +10°C° 0 mm 2 mps 752 mmHg 63%
08:00 +13°C° 0 mm 2 mps 752 mmHg 53%
09:00 +16°C° 0 mm 2 mps 751 mmHg 44%
10:00 +17°C° 0 mm 2 mps 751 mmHg 39%
11:00 +18°C° 0 mm 2 mps 750 mmHg 35%
12:00 +20°C° 0 mm 3 mps 750 mmHg 31%
13:00 +20°C° 0 mm 3 mps 750 mmHg 31%
14:00 +20°C° 0 mm 3 mps 749 mmHg 31%
15:00 +20°C° 0 mm 4 mps 749 mmHg 31%
16:00 +18°C° 0 mm 3 mps 749 mmHg 39%
17:00 +17°C° 0 mm 3 mps 749 mmHg 47%
18:00 +15°C° 0 mm 2 mps 749 mmHg 54%
19:00 +14°C° 0 mm 2 mps 749 mmHg 58%
20:00 +13°C° 0 mm 2 mps 750 mmHg 61%
21:00 +12°C° 0 mm 1 mps 750 mmHg 64%
22:00 +12°C° 0 mm 1 mps 750 mmHg 65%
23:00 +12°C° 0 mm 1 mps 750 mmHg 65%

20 April, Tuesday

Time Temperature Precipitation Wind Pressure Humidity
00:00 +11°C° 0 mm 1 mps 750 mmHg 66%
01:00 +11°C° 0 mm 1 mps 750 mmHg 67%
02:00 +11°C° 0 mm 1 mps 749 mmHg 67%
03:00 +11°C° 0 mm 1 mps 749 mmHg 68%
04:00 +10°C° 0 mm 2 mps 749 mmHg 69%
05:00 +10°C° 0 mm 2 mps 749 mmHg 70%
06:00 +10°C° 0 mm 2 mps 749 mmHg 71%
07:00 +13°C° 0 mm 2 mps 749 mmHg 66%
08:00 +13°C° 0 mm 3 mps 749 mmHg 61%
09:00 +16°C° 0 mm 3 mps 749 mmHg 55%
10:00 +17°C° 0 mm 3 mps 749 mmHg 51%
11:00 +18°C° 0 mm 3 mps 749 mmHg 47%
12:00 +19°C° 0 mm 3 mps 748 mmHg 43%
13:00 +18°C° 0 mm 3 mps 748 mmHg 47%
14:00 +18°C° 0 mm 4 mps 748 mmHg 50%
15:00 +17°C° 0 mm 4 mps 748 mmHg 53%
16:00 +15°C° 0.1 mm 4 mps 748 mmHg 62%
17:00 +13°C° 0.1 mm 4 mps 748 mmHg 71%
18:00 +12°C° 0.1 mm 4 mps 749 mmHg 80%
19:00 +11°C° 0.2 mm 4 mps 749 mmHg 82%
20:00 +11°C° 0.2 mm 4 mps 749 mmHg 83%
21:00 +11°C° 0.2 mm 4 mps 750 mmHg 85%
22:00 +10°C° 0.1 mm 4 mps 749 mmHg 85%
23:00 +10°C° 0.1 mm 3 mps 749 mmHg 86%

21 April, Wednesday

Time Temperature Precipitation Wind Pressure Humidity
00:00 +10°C° 0.1 mm 3 mps 749 mmHg 86%
01:00 +10°C° 0 mm 3 mps 749 mmHg 86%
02:00 +10°C° 0 mm 3 mps 749 mmHg 86%
03:00 +10°C° 0 mm 3 mps 748 mmHg 86%
04:00 +10°C° 0 mm 4 mps 748 mmHg 85%
05:00 +10°C° 0 mm 4 mps 748 mmHg 84%
06:00 +8°C° 0 mm 4 mps 748 mmHg 84%
07:00 +9°C° 0 mm 5 mps 749 mmHg 79%
08:00 +9°C° 0 mm 5 mps 749 mmHg 75%
09:00 +10°C° 0 mm 6 mps 749 mmHg 70%
10:00 +10°C° 0 mm 5 mps 749 mmHg 72%
11:00 +10°C° 0 mm 5 mps 749 mmHg 74%
12:00 +10°C° 0 mm 4 mps 749 mmHg 77%
13:00 +12°C° 0 mm 4 mps 748 mmHg 69%
14:00 +13°C° 0 mm 4 mps 747 mmHg 62%
15:00 +15°C° 0 mm 4 mps 747 mmHg 54%
16:00 +14°C° 0.3 mm 4 mps 747 mmHg 62%
17:00 +12°C° 0.3 mm 4 mps 748 mmHg 69%
18:00 +11°C° 0.3 mm 4 mps 748 mmHg 77%
19:00 +10°C° 0.9 mm 5 mps 749 mmHg 80%
20:00 +9°C° 0.9 mm 5 mps 749 mmHg 82%
21:00 +8°C° 0.9 mm 6 mps 750 mmHg 85%
22:00 +8°C° 0.1 mm 6 mps 750 mmHg 83%
23:00 +7°C° 0.1 mm 6 mps 750 mmHg 81%
Show more